Home   Weather   Bingen am Rhein   Past weeks

Flag for Germany Past Weather in Bingen am Rhein, Rhineland-Palatinate, Germany — Yesterday and Last 2 Weeks

Now
30 °F

Ice fog.


Feels Like: 27 °F
Forecast: 26 / 42 °F
Wind: 3 mph from Southwest

Location: Wiesbaden Airport

Current Time: Dec 8, 2016 at 1:15:53 pm

Latest Report: Dec 8, 2016 at 11:58 am


Visibility: 0 mi

Pressure: 30.55 "Hg

Humidity: 100%

Dew Point: 30 °F

Location of Bingen am RheinLocation

Past Weather in Bingen am Rhein — Graph

°F

Bingen am Rhein Temperature Yesterday

Maximum temperature yesterday: 31 °F (at 10:58 pm)
Minimum temperature yesterday: 28 °F (at 12:58 am)
Average temperature yesterday: 29 °F

High & Low Weather Summary for the Past Weeks

 TemperatureHumidityPressure
High57 °F (Nov 24, 11:58 am)100% (Dec 6, 1:58 am)30.62 "Hg (Dec 6, 1:58 am)
Low22 °F (Nov 30, 6:58 am)49% (Nov 28, 3:58 pm)30.03 "Hg (Nov 24, 12:58 am)
Average37 °F80%30.33 "Hg
* Reported Nov 23 11:58 am — Dec 8 11:58 am, Bingen am Rhein, Weather by CustomWeather, © 2016

Note: Actual official high and low records may vary slightly from our data, if they occured in-between our weather recording intervals... More about our weather records

Advertising

Bingen am Rhein Weather History for the Previous 24 Hours

Scroll right to see more
 ConditionsComfort  
Time TempWeatherWind HumidityBarometerVisibility
11:58 am
Thu, Dec 8
30 °FIce fog.3 mph100%30.55 "Hg1 mi
10:58 am30 °FIce fog.No wind97%30.58 "Hg1 mi
9:58 am30 °FIce fog.5 mph93%30.60 "Hg1 mi
8:58 am28 °FIce fog.3 mph100%30.60 "Hg1 mi
7:58 am29 °FIce fog.3 mph97%30.58 "Hg1 mi
6:58 am28 °FIce fog.3 mph100%30.58 "Hg1 mi
5:58 am28 °FIce fog.5 mph100%30.58 "Hg1 mi
4:58 am29 °FIce fog.5 mph97%30.58 "Hg1 mi
3:58 am29 °FIce fog.No wind98%30.60 "Hg1 mi
2:58 am30 °FIce fog.3 mph100%30.60 "Hg1 mi
1:58 am30 °FIce fog.No wind98%30.60 "Hg1 mi
12:58 am30 °FIce fog.3 mph98%30.60 "Hg1 mi
11:58 pm
Wed, Dec 7
30 °FIce fog.5 mph100%30.60 "Hg3 mi
10:58 pm31 °FIce fog.3 mph98%30.61 "Hg1 mi
9:58 pm30 °FIce fog.5 mph100%30.61 "Hg3 mi
8:58 pm30 °FIce fog.No wind100%30.61 "Hg2 mi
7:58 pm30 °FIce fog.No wind100%30.61 "Hg2 mi
6:58 pm30 °FIce fog.No wind97%30.60 "Hg4 mi
5:58 pm30 °FIce fog.3 mph93%30.60 "Hg3 mi
4:58 pm30 °FIce fog.No wind93%30.60 "Hg3 mi
3:59 pm30 °FIce fog.3 mph93%30.56 "Hg3 mi
3:58 pm29 °FIce fog.3 mph97%30.60 "Hg2 mi
2:57 pm28 °FIce fog.No wind100%30.55 "Hg2 mi
2:04 pm28 °FIce fog.No wind100%30.55 "Hg1 mi
1:58 pm28 °FIce fog.No wind100%30.59 "Hg2 mi
Weather by CustomWeather, © 2016

See weather overviewHow to use our weather pages